AVA152 SKBG-TFFR

Flight info

Callsign AVA152
Flight time N/A
Altitude 35000
Route ESNUT2H ESNUT DCT BRM UW14 KOLEG UW5 PBL/N0443F360 UM414 GAVAL/N0440F350 DCT TULEX TULEX1A
Aircraft A320/M-SDE3FGHIRWY/LB1

Departure

Time 2026-04-19 16:45
Airport Palonegro Airport (SKBG)

Arrival

Time N/A
Airport Maryse Condé International Airport (TFFR)
Time Latitude Longitude Altitude Speed Heading
2026-04-19 16:18 7.12724 -73.18189 3900 ft 0 kts 14°
2026-04-19 16:38 7.12707 -73.18193 3897 ft 4 kts
2026-04-19 16:38 7.12681 -73.18190 3897 ft 4 kts 323°
2026-04-19 16:38 7.12671 -73.18177 3898 ft 0 kts 280°
2026-04-19 16:41 7.12672 -73.18184 3897 ft 4 kts 280°
2026-04-19 16:41 7.12679 -73.18235 3900 ft 8 kts 276°
2026-04-19 16:41 7.12685 -73.18282 3899 ft 5 kts 260°
2026-04-19 16:42 7.12678 -73.18305 3899 ft 3 kts 259°
2026-04-19 16:42 7.12682 -73.18345 3903 ft 9 kts 277°
2026-04-19 16:42 7.12655 -73.18365 3900 ft 7 kts 168°
2026-04-19 16:42 7.12576 -73.18343 3895 ft 15 kts 157°
2026-04-19 16:43 7.12471 -73.18302 3896 ft 17 kts 159°
2026-04-19 16:43 7.12345 -73.18256 3889 ft 21 kts 161°
2026-04-19 16:43 7.12207 -73.18200 3885 ft 20 kts 158°
2026-04-19 16:43 7.12069 -73.18146 3879 ft 23 kts 159°
2026-04-19 16:44 7.11910 -73.18093 3870 ft 18 kts 162°
2026-04-19 16:44 7.11776 -73.18081 3860 ft 21 kts 175°
2026-04-19 16:44 7.11717 -73.18123 3854 ft 9 kts 311°
2026-04-19 16:44 7.11758 -73.18141 3864 ft 6 kts 339°
2026-04-19 16:45 7.11957 -73.18216 3874 ft 67 kts 340°
2026-04-19 16:45 7.12622 -73.18468 3897 ft 135 kts 340°
2026-04-19 16:45 7.13650 -73.18856 4272 ft 166 kts 339°
2026-04-19 16:45 7.14735 -73.19279 5165 ft 169 kts 338°
2026-04-19 16:46 7.15832 -73.19713 6050 ft 170 kts 338°
2026-04-19 16:46 7.16939 -73.20135 6916 ft 170 kts 339°
2026-04-19 16:46 7.18031 -73.20542 7720 ft 170 kts 339°
2026-04-19 16:46 7.19171 -73.20964 8457 ft 178 kts 339°
2026-04-19 16:47 7.20353 -73.21410 8811 ft 188 kts 339°
2026-04-19 16:47 7.21640 -73.21891 8944 ft 206 kts 339°
2026-04-19 16:47 7.23044 -73.22414 9073 ft 224 kts 339°
2026-04-19 16:47 7.24566 -73.22981 9195 ft 243 kts 339°
2026-04-19 16:48 7.26220 -73.23600 9341 ft 265 kts 339°
2026-04-19 16:48 7.28022 -73.24274 9574 ft 287 kts 339°
2026-04-19 16:48 7.29924 -73.24984 10096 ft 295 kts 341°
2026-04-19 16:48 7.31927 -73.25333 10675 ft 300 kts
2026-04-19 16:49 7.33982 -73.24932 11286 ft 305 kts 22°
2026-04-19 16:49 7.35779 -73.23785 11877 ft 310 kts 44°
2026-04-19 16:49 7.37147 -73.22052 12497 ft 314 kts 54°
2026-04-19 16:49 7.38411 -73.20245 13128 ft 318 kts 54°
2026-04-19 16:50 7.39673 -73.18439 13712 ft 321 kts 54°
2026-04-19 16:50 7.40993 -73.16554 14159 ft 332 kts 54°
2026-04-19 16:50 7.42342 -73.14628 14270 ft 351 kts 54°
2026-04-19 16:50 7.43701 -73.12515 14417 ft 368 kts 62°
2026-04-19 16:51 7.44680 -73.10103 14780 ft 376 kts 73°
2026-04-19 16:51 7.45232 -73.07516 14933 ft 378 kts 81°
2026-04-19 16:51 7.45663 -73.04902 14965 ft 378 kts 81°
2026-04-19 16:51 7.46086 -73.02287 14975 ft 378 kts 81°
2026-04-19 16:52 7.46504 -72.99676 14976 ft 378 kts 81°
2026-04-19 16:52 7.46923 -72.97061 14977 ft 378 kts 81°
2026-04-19 16:52 7.47346 -72.94442 15156 ft 381 kts 81°
2026-04-19 16:52 7.47776 -72.91799 15727 ft 383 kts 81°
2026-04-19 16:53 7.48215 -72.89140 16270 ft 386 kts 81°
2026-04-19 16:53 7.48657 -72.86462 16768 ft 389 kts 81°
2026-04-19 16:53 7.49100 -72.83761 17267 ft 392 kts 81°
2026-04-19 16:53 7.49545 -72.81037 17739 ft 396 kts 81°
2026-04-19 16:54 7.50005 -72.78289 18219 ft 399 kts 78°
2026-04-19 16:54 7.50796 -72.75612 18609 ft 402 kts 67°
2026-04-19 16:54 7.52103 -72.73077 19015 ft 404 kts 56°
2026-04-19 16:54 7.53779 -72.70794 19427 ft 406 kts 52°
2026-04-19 16:55 7.55495 -72.68533 19860 ft 408 kts 52°
2026-04-19 16:55 7.58956 -72.63959 20640 ft 413 kts 52°
2026-04-19 16:55 7.60700 -72.61653 21018 ft 416 kts 52°
2026-04-19 16:56 7.62453 -72.59331 21380 ft 418 kts 52°
2026-04-19 16:56 7.64225 -72.56981 21753 ft 421 kts 52°
2026-04-19 16:56 7.66002 -72.54624 22112 ft 424 kts 52°
2026-04-19 16:56 7.67788 -72.52250 22479 ft 427 kts 52°
2026-04-19 16:57 7.69589 -72.49858 22820 ft 429 kts 52°
2026-04-19 16:57 7.71403 -72.47451 23157 ft 432 kts 52°
2026-04-19 16:57 7.73226 -72.45034 23487 ft 435 kts 52°
2026-04-19 16:57 7.75061 -72.42602 23787 ft 437 kts 52°
2026-04-19 16:58 7.76905 -72.40159 24059 ft 440 kts 52°
2026-04-19 16:58 7.78766 -72.37693 24347 ft 443 kts 52°
2026-04-19 16:58 7.80633 -72.35214 24634 ft 445 kts 52°
2026-04-19 16:58 7.82509 -72.32722 24912 ft 447 kts 52°
2026-04-19 16:59 7.84394 -72.30218 25178 ft 450 kts 52°
2026-04-19 16:59 7.86288 -72.27704 25448 ft 452 kts 52°
2026-04-19 16:59 7.88197 -72.25175 25706 ft 454 kts 52°
2026-04-19 16:59 7.90115 -72.22631 25983 ft 456 kts 52°
2026-04-19 17:00 7.92038 -72.20078 26271 ft 458 kts 52°
2026-04-19 17:00 7.93316 -72.18381 26452 ft 460 kts 52°
2026-04-19 17:00 7.95916 -72.14929 26815 ft 463 kts 52°
2026-04-19 17:00 7.97864 -72.12341 27083 ft 465 kts 52°
2026-04-19 17:01 7.99826 -72.09734 27321 ft 467 kts 52°
2026-04-19 17:01 8.01757 -72.07167 27571 ft 469 kts 52°
2026-04-19 17:01 8.03748 -72.04517 27823 ft 471 kts 52°
2026-04-19 17:01 8.05730 -72.01876 28101 ft 473 kts 52°
2026-04-19 17:02 8.07747 -71.99192 28357 ft 475 kts 52°
2026-04-19 17:02 8.09720 -71.96572 28619 ft 477 kts 52°
2026-04-19 17:02 8.11763 -71.93855 28893 ft 479 kts 52°
2026-04-19 17:02 8.13783 -71.91166 29130 ft 481 kts 51°
2026-04-19 17:03 8.15803 -71.88478 29374 ft 483 kts 52°
2026-04-19 17:03 8.17840 -71.85768 29603 ft 485 kts 52°
2026-04-19 17:03 8.19873 -71.83061 29824 ft 487 kts 52°
2026-04-19 17:03 8.21934 -71.80315 30077 ft 489 kts 52°
2026-04-19 17:04 8.23986 -71.77583 30272 ft 490 kts 52°
2026-04-19 17:04 8.26054 -71.74829 30474 ft 492 kts 52°
2026-04-19 17:04 8.28119 -71.72074 30648 ft 494 kts 52°
2026-04-19 17:04 8.30190 -71.69306 30884 ft 494 kts 52°
2026-04-19 17:05 8.32264 -71.66542 31155 ft 493 kts 52°
2026-04-19 17:05 8.34338 -71.63777 31445 ft 493 kts 52°
2026-04-19 17:05 8.36405 -71.61021 31717 ft 493 kts 52°
2026-04-19 17:05 8.38474 -71.58259 31972 ft 493 kts 52°
2026-04-19 17:06 8.40543 -71.55496 32226 ft 493 kts 52°
2026-04-19 17:06 8.42612 -71.52736 32479 ft 493 kts 52°
2026-04-19 17:06 8.44681 -71.49975 32772 ft 493 kts 52°
2026-04-19 17:06 8.46751 -71.47214 33027 ft 493 kts 52°
2026-04-19 17:07 8.48819 -71.44456 33316 ft 492 kts 52°
2026-04-19 17:07 8.50887 -71.41695 33594 ft 492 kts 52°
2026-04-19 17:07 8.52952 -71.38939 33878 ft 492 kts 53°
2026-04-19 17:07 8.55009 -71.36193 34154 ft 491 kts 53°
2026-04-19 17:08 8.57077 -71.33429 34380 ft 491 kts 53°
2026-04-19 17:08 8.59135 -71.30677 34617 ft 491 kts 53°
2026-04-19 17:08 8.61188 -71.27928 34865 ft 490 kts 53°
2026-04-19 17:08 8.63240 -71.25179 35043 ft 490 kts 53°
2026-04-19 17:09 8.67325 -71.19715 35094 ft 485 kts 52°
2026-04-19 17:09 8.71374 -71.14305 35099 ft 484 kts 53°
2026-04-19 17:10 8.75453 -71.08844 35096 ft 485 kts 52°
2026-04-19 17:10 8.79518 -71.03403 35111 ft 484 kts 53°
2026-04-19 17:11 8.83546 -70.98004 35110 ft 484 kts 53°
2026-04-19 17:11 8.87634 -70.92531 35113 ft 485 kts 53°
2026-04-19 17:12 8.91665 -70.87117 35107 ft 484 kts 53°
2026-04-19 17:12 8.95058 -70.82562 35106 ft 484 kts 53°
2026-04-19 17:13 8.99773 -70.76242 35096 ft 485 kts 52°
2026-04-19 17:13 9.03170 -70.71683 35085 ft 484 kts 53°
2026-04-19 17:14 9.07219 -70.66243 35070 ft 484 kts 53°
2026-04-19 17:14 9.11270 -70.60802 35057 ft 484 kts 53°
2026-04-19 17:15 9.15323 -70.55351 35048 ft 484 kts 53°
2026-04-19 17:15 9.19368 -70.49906 35037 ft 484 kts 53°
2026-04-19 17:16 9.23386 -70.44494 35032 ft 484 kts 53°
2026-04-19 17:16 9.27441 -70.39047 35030 ft 485 kts 52°
2026-04-19 17:17 9.31498 -70.33599 35030 ft 485 kts 53°
2026-04-19 17:17 9.35575 -70.28100 35026 ft 485 kts 52°
2026-04-19 17:18 9.39622 -70.22635 35025 ft 486 kts 53°
2026-04-19 17:18 9.43653 -70.17202 35022 ft 486 kts 53°
2026-04-19 17:19 9.47725 -70.11724 35023 ft 486 kts 52°
2026-04-19 17:19 9.51787 -70.06246 35021 ft 487 kts 53°
2026-04-19 17:20 9.55838 -70.00762 35019 ft 486 kts 52°
2026-04-19 17:20 9.59899 -69.95275 35014 ft 486 kts 53°
2026-04-19 17:21 9.63957 -69.89803 35014 ft 487 kts 53°
2026-04-19 17:21 9.68023 -69.84302 35009 ft 486 kts 53°
2026-04-19 17:22 9.72073 -69.78818 35001 ft 486 kts 53°
2026-04-19 17:22 9.76123 -69.73339 34987 ft 486 kts 53°
2026-04-19 17:23 9.80174 -69.67857 34979 ft 486 kts 53°
2026-04-19 17:23 9.84220 -69.62376 34977 ft 486 kts 53°
2026-04-19 17:24 9.88270 -69.56879 34983 ft 487 kts 53°
2026-04-19 17:24 9.92320 -69.51382 34983 ft 487 kts 53°
2026-04-19 17:25 9.96385 -69.45872 34991 ft 487 kts 53°
2026-04-19 17:25 9.99763 -69.41298 34997 ft 487 kts 53°
2026-04-19 17:26 10.00341 -69.40511 34996 ft 487 kts 54°
2026-04-19 17:26 10.02635 -69.37076 35001 ft 485 kts 66°
2026-04-19 17:27 10.03751 -69.33877 34991 ft 482 kts 79°
2026-04-19 17:27 10.04268 -69.30519 34988 ft 479 kts 88°
2026-04-19 17:27 10.04453 -69.23788 34985 ft 478 kts 91°
2026-04-19 17:28 10.04686 -69.17035 34965 ft 479 kts 90°
2026-04-19 17:28 10.05005 -69.10281 34952 ft 481 kts 85°
2026-04-19 17:29 10.06759 -69.03747 34946 ft 484 kts 67°
2026-04-19 17:29 10.09501 -68.97492 34940 ft 485 kts 67°
2026-04-19 17:30 10.12231 -68.91227 34941 ft 485 kts 67°
2026-04-19 17:30 10.14952 -68.84958 34944 ft 485 kts 67°
2026-04-19 17:31 10.17677 -68.78685 34948 ft 486 kts 67°
2026-04-19 17:31 10.20408 -68.72409 34947 ft 486 kts 67°
2026-04-19 17:32 10.23139 -68.66127 34955 ft 486 kts 67°
2026-04-19 17:32 10.25874 -68.59848 34956 ft 486 kts 68°
2026-04-19 17:33 10.28603 -68.53560 34956 ft 487 kts 68°
2026-04-19 17:33 10.31326 -68.47273 34954 ft 486 kts 68°
2026-04-19 17:34 10.34051 -68.40980 34958 ft 487 kts 68°
2026-04-19 17:34 10.36790 -68.34682 34956 ft 487 kts 68°
2026-04-19 17:35 10.39514 -68.28388 34965 ft 487 kts 68°
2026-04-19 17:35 10.42235 -68.22081 34957 ft 488 kts 68°
2026-04-19 17:36 10.44970 -68.15762 34957 ft 487 kts 68°
2026-04-19 17:36 10.48107 -68.09682 34968 ft 489 kts 55°
2026-04-19 17:37 10.52876 -68.04753 34965 ft 489 kts 35°
2026-04-19 17:37 10.58500 -68.00887 34961 ft 489 kts 33°
2026-04-19 17:38 10.64153 -67.97016 34960 ft 490 kts 33°
2026-04-19 17:38 10.69806 -67.93135 34963 ft 490 kts 33°